Regional Weather Roundup
Issued by NWS

Home | Current Version | Previous Version | Text Only | Print | Product List | Glossary Off
Versions: 1 2 3 4 5 6 7 8 9 10 11 12 13 14 15 16 17 18 19 20 21 22 23 24 25 26 27 28 29 30 31 32 33 34 35 36 37 38 39 40 41 42 43 44 45 46 47 48 49 50

867
ASUS45 KBOI 220910
RWRID

IDAHO REGIONAL WEATHER ROUNDUP
NATIONAL WEATHER SERVICE BOISE ID
300 AM MDT THU JUN 22 2017

NOTE: "FAIR" INDICATES FEW OR NO CLOUDS BELOW 12000 FEET
WITH NO SIGNIFICANT WEATHER AND/OR OBSTRUCTIONS TO VISIBILITY

IDZ012-014-221000-
SOUTHWEST IDAHO


CITY           SKY/WX    TMP DP  RH WIND       PRES   REMARKS
BOISE          CLEAR     63  31  30 W10       30.03R
CALDWELL       CLEAR     62  33  33 W13       30.05R
MOUNTAIN HOME  CLEAR     64  28  26 NW18      30.01R
$$

IDZ016-017-221000-
SOUTHCENTRAL IDAHO


CITY           SKY/WX    TMP DP  RH WIND       PRES   REMARKS
BURLEY         CLEAR     64  35  34 W22G32    29.99R
JEROME         CLEAR     60  34  37 SW12      30.02R
TWIN FALLS     CLEAR     60  33  36 SW18      30.02R
$$

IDZ019>023-221000-
SOUTHEAST IDAHO


CITY           SKY/WX    TMP DP  RH WIND       PRES   REMARKS
IDAHO FALLS    CLEAR     55  41  59 SW9       30.02R
POCATELLO      CLEAR     62  36  37 SW15      30.02R
REXBURG        CLOUDY    57  39  51 S5        30.02R
$$

IDZ006-010-011-018-031-032-221000-
CENTRAL IDAHO MOUNTAINS


CITY           SKY/WX    TMP DP  RH WIND       PRES   REMARKS
MCCALL         CLEAR     51  35  54 N7        30.16R
HAILEY         CLEAR     55  37  50 NW10      30.06S
STANLEY          N/A     40  31  70 CALM      30.19R
SALMON         CLEAR     57  30  35 N16       30.10R
CHALLIS        CLEAR     54  32  43 NW6       30.10R
$$

IDZ002-004-006-007-026-221000-
NORTHERN IDAHO


CITY           SKY/WX    TMP DP  RH WIND       PRES   REMARKS
LEWISTON       CLEAR     62  31  31 SW8       30.10R
LOWELL           N/A     50  44  80 CALM      30.14R
COEUR D`ALENE  CLEAR     51  37  58 E3        30.12R
MULLAN PASS    CLEAR     45  25  45 NW7       30.16R
$$




USA.gov is the U.S. government's official web portal to all federal, state and local government web resources and services.